• In Hungary
  • List of Countries
  • For 7 days
  • Water Temperature
  • Satellite Maps
  • Weather Map
  • News
  • Weather Widgets
  • user-avatar
    Login

    Hourly Weather Mauritius

    Today, 18 October, Thursday

    Time Temperature Precipitation Wind Pressure Humidity
    00:00 +22°C° 0 mm 5 mps 725 mmHg 81%
    01:00 +22°C° 0 mm 5 mps 725 mmHg 82%
    02:00 +22°C° 0 mm 5 mps 724 mmHg 82%
    03:00 +22°C° 0 mm 5 mps 724 mmHg 82%
    04:00 +22°C° 0 mm 5 mps 724 mmHg 83%
    05:00 +22°C° 0 mm 5 mps 724 mmHg 82%
    06:00 +22°C° 0 mm 5 mps 724 mmHg 81%
    07:00 +22°C° 0 mm 6 mps 725 mmHg 80%
    08:00 +23°C° 0 mm 6 mps 725 mmHg 77%
    09:00 +24°C° 0 mm 6 mps 725 mmHg 74%
    10:00 +26°C° 0 mm 6 mps 725 mmHg 71%
    11:00 +26°C° 0.1 mm 6 mps 724 mmHg 70%
    12:00 +26°C° 0.1 mm 6 mps 724 mmHg 70%
    13:00 +26°C° 0.1 mm 7 mps 724 mmHg 70%
    14:00 +26°C° 0.2 mm 7 mps 724 mmHg 71%
    15:00 +24°C° 0.2 mm 7 mps 723 mmHg 73%
    16:00 +24°C° 0.2 mm 6 mps 723 mmHg 74%
    17:00 +24°C° 0.1 mm 6 mps 723 mmHg 76%
    18:00 +23°C° 0.1 mm 6 mps 723 mmHg 78%
    19:00 +23°C° 0.1 mm 6 mps 724 mmHg 80%
    20:00 +23°C° 0.1 mm 6 mps 724 mmHg 81%
    21:00 +23°C° 0.1 mm 6 mps 724 mmHg 82%
    22:00 +23°C° 0.1 mm 6 mps 725 mmHg 83%
    23:00 +22°C° 0.2 mm 7 mps 724 mmHg 83%

    Tomorrow, 19 October, Friday

    Time Temperature Precipitation Wind Pressure Humidity
    00:00 +22°C° 0.2 mm 7 mps 724 mmHg 83%
    01:00 +22°C° 0.2 mm 7 mps 724 mmHg 83%
    02:00 +22°C° 0.2 mm 7 mps 724 mmHg 83%
    03:00 +22°C° 0.2 mm 6 mps 724 mmHg 83%
    04:00 +22°C° 0.2 mm 6 mps 723 mmHg 83%
    05:00 +22°C° 0 mm 6 mps 724 mmHg 82%
    06:00 +22°C° 0 mm 6 mps 724 mmHg 81%
    07:00 +23°C° 0 mm 6 mps 724 mmHg 80%
    08:00 +23°C° 0 mm 6 mps 724 mmHg 78%
    09:00 +24°C° 0 mm 6 mps 724 mmHg 75%
    10:00 +24°C° 0 mm 6 mps 725 mmHg 72%
    11:00 +26°C° 0 mm 6 mps 724 mmHg 70%
    12:00 +27°C° 0 mm 5 mps 724 mmHg 67%
    13:00 +27°C° 0 mm 5 mps 724 mmHg 65%
    14:00 +27°C° 0 mm 5 mps 724 mmHg 66%
    15:00 +27°C° 0 mm 5 mps 724 mmHg 68%
    16:00 +26°C° 0 mm 5 mps 723 mmHg 69%
    17:00 +26°C° 0 mm 5 mps 724 mmHg 72%
    18:00 +25°C° 0 mm 4 mps 724 mmHg 75%
    19:00 +25°C° 0 mm 4 mps 724 mmHg 78%
    20:00 +23°C° 0 mm 4 mps 724 mmHg 80%
    21:00 +23°C° 0 mm 4 mps 725 mmHg 81%
    22:00 +23°C° 0 mm 4 mps 725 mmHg 83%
    23:00 +23°C° 0 mm 4 mps 725 mmHg 83%

    Day after tomorrow, 20 October, Saturday

    Time Temperature Precipitation Wind Pressure Humidity
    00:00 +23°C° 0 mm 4 mps 725 mmHg 84%
    01:00 +22°C° 0 mm 4 mps 724 mmHg 84%
    02:00 +22°C° 0 mm 4 mps 724 mmHg 85%
    03:00 +22°C° 0 mm 4 mps 724 mmHg 86%
    04:00 +22°C° 0 mm 4 mps 724 mmHg 86%
    05:00 +22°C° 0 mm 4 mps 724 mmHg 86%
    06:00 +22°C° 0 mm 4 mps 724 mmHg 85%
    07:00 +23°C° 0 mm 4 mps 725 mmHg 84%
    08:00 +23°C° 0 mm 4 mps 725 mmHg 80%
    09:00 +25°C° 0 mm 4 mps 725 mmHg 76%
    10:00 +26°C° 0 mm 4 mps 725 mmHg 71%
    11:00 +26°C° 0 mm 4 mps 725 mmHg 70%
    12:00 +27°C° 0 mm 4 mps 725 mmHg 69%
    13:00 +27°C° 0 mm 4 mps 725 mmHg 68%
    14:00 +27°C° 0.5 mm 4 mps 725 mmHg 69%
    15:00 +26°C° 0.5 mm 3 mps 724 mmHg 69%
    16:00 +26°C° 0.5 mm 3 mps 724 mmHg 70%
    17:00 +25°C° 0.7 mm 3 mps 724 mmHg 72%
    18:00 +25°C° 0.7 mm 2 mps 725 mmHg 74%
    19:00 +24°C° 0.7 mm 2 mps 725 mmHg 76%
    20:00 +24°C° 0.1 mm 2 mps 725 mmHg 78%
    21:00 +24°C° 0.1 mm 2 mps 726 mmHg 81%
    22:00 +24°C° 0.1 mm 2 mps 726 mmHg 83%
    23:00 +24°C° 0 mm 3 mps 726 mmHg 84%

    21 October, Sunday

    Time Temperature Precipitation Wind Pressure Humidity
    00:00 +24°C° 0 mm 3 mps 725 mmHg 85%
    01:00 +22°C° 0 mm 3 mps 725 mmHg 86%
    02:00 +22°C° 0 mm 3 mps 725 mmHg 87%
    03:00 +22°C° 0 mm 4 mps 724 mmHg 87%
    04:00 +22°C° 0 mm 4 mps 724 mmHg 87%
    05:00 +22°C° 0 mm 4 mps 725 mmHg 86%
    06:00 +23°C° 0 mm 5 mps 725 mmHg 86%
    07:00 +23°C° 0 mm 5 mps 725 mmHg 85%
    08:00 +23°C° 0 mm 5 mps 725 mmHg 81%
    09:00 +25°C° 0 mm 5 mps 725 mmHg 77%
    10:00 +26°C° 0 mm 5 mps 726 mmHg 74%
    11:00 +26°C° 0 mm 5 mps 725 mmHg 72%
    12:00 +27°C° 0 mm 5 mps 725 mmHg 71%
    13:00 +27°C° 0 mm 5 mps 724 mmHg 70%
    14:00 +27°C° 0 mm 5 mps 724 mmHg 70%
    15:00 +27°C° 0 mm 6 mps 724 mmHg 70%
    16:00 +27°C° 0 mm 6 mps 723 mmHg 71%
    17:00 +26°C° 0 mm 5 mps 724 mmHg 74%
    18:00 +25°C° 0 mm 5 mps 724 mmHg 77%
    19:00 +25°C° 0 mm 5 mps 724 mmHg 80%
    20:00 +25°C° 0 mm 5 mps 725 mmHg 82%
    21:00 +23°C° 0 mm 5 mps 725 mmHg 83%
    22:00 +23°C° 0 mm 5 mps 725 mmHg 85%
    23:00 +23°C° 0.1 mm 6 mps 725 mmHg 85%

    22 October, Monday

    Time Temperature Precipitation Wind Pressure Humidity
    00:00 +23°C° 0.1 mm 6 mps 724 mmHg 85%
    01:00 +23°C° 0.1 mm 6 mps 724 mmHg 86%
    02:00 +23°C° 0 mm 6 mps 724 mmHg 85%
    03:00 +23°C° 0 mm 6 mps 724 mmHg 85%
    04:00 +23°C° 0 mm 6 mps 723 mmHg 85%
    05:00 +23°C° 0.1 mm 6 mps 724 mmHg 85%
    06:00 +23°C° 0.1 mm 6 mps 724 mmHg 85%
    07:00 +23°C° 0.1 mm 6 mps 724 mmHg 85%
    08:00 +24°C° 0 mm 6 mps 724 mmHg 82%
    09:00 +24°C° 0 mm 6 mps 724 mmHg 80%
    10:00 +26°C° 0 mm 7 mps 724 mmHg 77%
    11:00 +26°C° 0.3 mm 7 mps 724 mmHg 76%
    12:00 +26°C° 0.3 mm 7 mps 724 mmHg 75%
    13:00 +26°C° 0.3 mm 7 mps 723 mmHg 74%
    14:00 +26°C° 0.3 mm 7 mps 723 mmHg 74%
    15:00 +26°C° 0.3 mm 7 mps 723 mmHg 73%
    16:00 +26°C° 0.3 mm 7 mps 723 mmHg 73%
    17:00 +26°C° 0.2 mm 7 mps 723 mmHg 76%
    18:00 +24°C° 0.2 mm 7 mps 724 mmHg 80%
    19:00 +23°C° 0.2 mm 7 mps 724 mmHg 83%
    20:00 +23°C° 0.8 mm 7 mps 724 mmHg 85%
    21:00 +23°C° 0.8 mm 6 mps 725 mmHg 86%
    22:00 +23°C° 0.8 mm 6 mps 725 mmHg 88%
    23:00 +22°C° 0.8 mm 5 mps 725 mmHg 88%

    23 October, Tuesday

    Time Temperature Precipitation Wind Pressure Humidity
    00:00 +22°C° 0.8 mm 5 mps 724 mmHg 88%
    01:00 +22°C° 0.8 mm 4 mps 724 mmHg 89%
    02:00 +22°C° 0.3 mm 4 mps 724 mmHg 89%
    03:00 +22°C° 0.3 mm 4 mps 724 mmHg 89%
    04:00 +22°C° 0.3 mm 5 mps 724 mmHg 89%
    05:00 +22°C° 0.5 mm 5 mps 724 mmHg 88%
    06:00 +22°C° 0.5 mm 5 mps 725 mmHg 88%
    07:00 +22°C° 0.5 mm 5 mps 725 mmHg 87%
    08:00 +22°C° 0.2 mm 5 mps 726 mmHg 85%
    09:00 +22°C° 0.2 mm 5 mps 726 mmHg 84%
    10:00 +22°C° 0.2 mm 6 mps 726 mmHg 82%
    11:00 +22°C° 0.1 mm 6 mps 726 mmHg 81%
    12:00 +23°C° 0.1 mm 5 mps 725 mmHg 80%
    13:00 +23°C° 0.1 mm 5 mps 725 mmHg 79%
    14:00 +23°C° 0 mm 6 mps 725 mmHg 77%
    15:00 +22°C° 0 mm 7 mps 725 mmHg 76%
    16:00 +22°C° 0 mm 7 mps 725 mmHg 74%
    17:00 +22°C° 0 mm 7 mps 726 mmHg 71%
    18:00 +22°C° 0 mm 8 mps 726 mmHg 69%
    19:00 +21°C° 0 mm 8 mps 726 mmHg 67%
    20:00 +21°C° 0 mm 7 mps 727 mmHg 67%
    21:00 +21°C° 0 mm 7 mps 727 mmHg 68%
    22:00 +21°C° 0 mm 7 mps 727 mmHg 69%
    23:00 +21°C° 0 mm 7 mps 727 mmHg 71%
    Show more